SCP
0 0 0 0 0 0 0 0 0 0 0 0 0 0 0 0 0 0 0 0 0 0 0 0 0 0 0 0 0 0 0 0 0 0 0 0 0 0 0 0 -0 -0 -0 -0
0 0 0 0 0 0 0 0 0 0 0 0 0 0 0 0 0 0 0 0 0 0 0 0 0 0 0 0 0 0 0 0 0 0 0 0 0 0 0 0 -0 -0 -0 0
0 0 0 0 0 0 0 0 0 0 0 0 0 0 0 0 0 0 0 0 0 0 0 0 0 0 0 0 0 0 0 0 0 0 0 0 0 0 0 0 -0 -0 -0 0
0 0 0 0 0 0 0 0 0 0 0 0 0 0 0 0 0 0 0 0 0 0 0 0 0 0 0 0 0 0 0 0 0 0 0 0 0 0 0 0 0 0 0 0
0 0 0 0 0 0 0 0 0 0 0 0 0 0 0 0 0 0 0 0 0 0 0 0 0 0 0 0 0 0 0 0 0 0 0 0 0 0 0 0 0 0 0 0
0 0 0 0 0 0 0 0 0 0 0 0 0 0 0 0 0 0 0 0 0 0 0 0 0 0 0 0 0 0 0 0 0 0 0 0 0 0 0 0 0 0 0 0
0 0 0 0 0 0 0 0 0 0 0 0 0 0 0 0 0 0 0 0 0 0 0 0 0 0 0 0 0 0 0 0 0 0 0 0 0 0 0 0 0 0 0 0
0 0 0 0 0 0 0 0 0 0 0 0 0 0 0 0 0 0 0 0 0 0 0 0 0 0 0 0 0 0 0 0 0 0 0 0 0 0 0 0 0 0 0 0
0 0 0 0 0 0 0 0 0 0 0 0 0 0 0 0 0 0 0 0 0 0 0 0 0 0 0 0 0 0 0 0 0 0 0 0 0 -0 -0 -0 0 0 -0 0
0 0 0 0 0 0 0 0 0 0 0 0 0 0 0 0 0 0 0 0 0 0 0 0 0 0 0 0 0 0 0 0 0 0 0 0 0 -0 -0 -0 -0 0 0 0
-0 0 0 0 0 0 0 0 0 0 0 0 0 0 0 0 0 0 0 0 0 0 0 0 0 0 0 0 0 0 0 0 0 0 0 0 0 -0 0 0 0 -0 0 0
-0 0 -0 0 0 0 0 0 0 0 0 0 0 0 0 0 0 0 0 0 0 0 0 0 0 0 0 0 0 0 0 -0 0 0 0 -0 0 0 0 -0 -0 -0 0 0
0 0 -0 0 0 0 0 0 0 0 0 0 0 0 0 0 0 0 0 0 0 0 0 0 0 0 0 0 0 0 0 0 0 0 0 -0 -0 0 0 -0 -0 -0 0 0
0 0 0 0 0 0 0 0 0 0 0 0 0 0 0 0 0 0 0 0 0 0 0 0 0 0 0 0 0 0 0 0 0 0 0 -0 -0 0 -0 0 0 -0 0 0
0 0 0 0 0 0 0 0 0 0 0 0 0 0 0 0 0 0 0 0 0 0 0 0 0 0 0 0 0 0 0 0 -0 -0 -0 -0 -0 0 -0 -0 -0 0 -0 -0
0 0 0 0 -0 0 0 0 0 0 0 0 0 0 0 0 0 0 0 0 0 0 0 0 0 0 0 0 0 0 0 0 -0 -0 0 -0 0 -0 -0 -0 -0 -0 -0 -0
0 0 0 0 0 0 0 0 0 0 0 0 0 0 0 0 0 0 0 0 0 0 0 0 0 0 0 0 0 0 0 -0 -0 -0 -0 -0 0 0 -0 -0 0 0 0 0
0 0 0 0 0 0 0 0 0 -0 0 0 0 0 0 0 0 0 0 0 0 0 0 0 0 0 0 0 0 -0 -0 -0 -0 0 0 0 -0 -0 0 0 0 0 0 0
-0 -0 -0 0 0 0 0 0 0 -0 0 0 0 0 0 0 0 0 0 0 0 0 0 0 0 -0 0 0 -0 -0 -0 -0 -0 -0 -0 -0 0 0 0 -0 -0 0 0 0
0 -0 -0 0 0 -0 -0 -0 -0 0 0 0 0 0 0 0 0 0 0 0 0 0 0 0 -0 -0 0 -0 -0 0 -0 -0 -0 -0 -0 -0 -0 -0 -0 0 0 -0 -0 0
0 0 0 -0 -0 -0 -0 0 0 0 0 0 0 0 0 0 0 0 0 0 0 0 0 0 0 -0 -0 -0 -0 0 0 0 0 -0 -0 -0 -0 -0 -0 -0 -0 -0 -0 -0
0 -0 -0 -0 -0 -0 0 0 0 0 0 0 0 0 0 0 0 0 0 0 0 0 0 0 0 -0 -0 -0 -0 -0 0 0 0 0 0 0 0 0 0 0 0 0 0 0
0 -0 -0 -0 -0 -0 0 0 0 0 0 0 0 0 0 0 0 0 0 0 0 0 0 0 0 0 -0 -0 -0 -0 -0 -0 0 0 0 0 0 0 0 0 0 0 0 0
0 0 0 0 0 0 0 0 0 0 0 0 0 0 0 0 0 0 0 0 0 0 0 0 0 0 -0 -0 -0 -0 -0 -0 -0 -0 -0 -0 -0 -0 -0 -0 0 0 0 0
0 0 0 0 0 -0 -0 0 0 0 0 0 0 0 0 0 0 0 0 0 0 0 0 0 0 0 0 -0 -0 -0 -0 -0 -0 -0 -0 -0 -0 -0 -0 -0 -0 -0 -0 -0
0 0 0 0 -0 -0 -0 -0 -0 -0 -0 0 0 0 0 0 0 0 0 0 0 0 0 0 0 0 0 -0 -0 -0 -0 0 -0 -0 -0 -0 -0 -0 -0 -0 -0 -0 -0 -0
0 0 0 0 -0 0 0 0 0 -0 -0 0 0 0 0 0 0 0 0 0 0 0 0 0 0 0 0 0 0 -0 -0 -0 -0 -0 -0 -0 -0 -0 -0 -0 -0 -0 -0 -0
Wind_Speed_500mb
18 19 16 13 12 14 21 29 21 23 33 26 32 35 56 25 30 27 20 13 18 28 37 41 45 52 61 72 80 78 71 66 65 62 66 70 74 72 72 71 70 67 71 66
36 28 25 31 15 17 28 23 24 27 44 16 43 38 23 32 25 21 14 15 22 31 34 40 44 53 65 77 82 69 69 68 69 68 72 70 74 73 76 80 72 65 68 66
25 31 24 20 43 37 29 32 20 30 23 10 7 15 29 28 28 23 16 16 25 27 35 37 44 58 69 78 73 64 66 69 70 70 71 73 71 71 75 71 67 61 63 59
10 7 27 25 15 29 43 47 40 11 13 19 22 26 29 27 27 18 11 18 18 27 31 36 46 58 69 76 64 65 66 70 70 70 70 69 65 71 76 71 64 57 55 55
12 24 10 15 28 33 29 30 28 26 23 26 36 32 19 25 12 5 11 13 22 28 31 35 48 62 67 66 63 62 66 67 70 70 70 67 70 72 72 71 61 54 54 56
14 14 24 26 34 40 5 14 14 21 26 20 29 6 8 25 7 10 7 17 22 23 27 38 53 59 60 57 60 62 65 66 66 68 70 72 64 59 59 55 52 47 54 54
34 14 14 13 12 34 26 17 21 43 41 31 10 9 14 17 8 6 12 15 17 23 31 42 53 55 56 55 60 61 63 63 61 65 63 58 53 44 37 36 33 43 55 62
24 22 45 23 14 25 14 34 39 46 41 33 28 25 22 11 9 10 12 13 17 24 31 40 47 51 58 57 59 59 60 59 60 61 55 58 52 40 38 31 34 45 55 55
3 9 13 15 28 36 42 55 43 46 40 33 38 36 24 15 15 11 9 12 17 25 29 40 41 46 57 56 57 59 59 59 59 53 54 53 56 36 49 45 54 52 77 39
12 17 23 19 8 40 47 53 50 40 37 38 37 34 24 23 18 10 7 13 18 19 32 42 37 45 51 54 54 54 59 59 59 53 47 37 36 45 49 47 59 70 85 13
7 35 40 36 20 13 38 50 45 37 35 39 38 32 27 23 11 2 5 9 10 21 29 41 38 43 48 49 51 53 57 58 57 54 48 36 33 35 31 28 34 49 72 9
8 25 17 25 31 14 30 56 45 41 40 38 32 34 30 18 7 1 3 4 11 16 24 34 37 41 45 46 46 48 55 57 53 51 50 44 41 31 26 26 18 16 38 30
27 30 26 36 24 23 14 24 35 41 45 40 37 33 22 16 7 5 1 6 12 19 25 38 32 38 41 45 43 41 47 48 46 46 49 47 45 47 43 25 13 7 10 36
54 53 30 29 17 7 8 23 34 43 43 39 34 23 16 10 9 3 2 8 15 19 25 26 30 34 39 42 40 39 38 41 43 40 41 43 44 43 43 46 34 26 14 23
68 54 47 32 26 36 26 47 48 48 44 37 25 18 11 8 7 5 3 8 10 13 17 22 26 36 41 42 38 37 38 40 38 38 39 38 37 39 42 41 40 33 26 13
43 33 45 57 61 54 60 50 47 49 40 35 30 22 12 9 8 4 7 5 8 9 13 16 24 32 40 39 38 39 40 35 34 38 42 41 40 41 44 43 43 38 30 26
42 41 43 44 39 31 49 46 52 49 43 43 34 25 14 8 5 1 2 5 8 9 9 13 21 27 34 36 39 35 39 40 38 41 43 44 44 45 46 46 43 40 35 24
46 39 18 14 22 32 38 51 53 45 45 49 38 24 13 7 3 3 1 3 7 3 8 14 18 22 31 31 30 27 36 40 42 44 47 49 49 48 47 46 46 42 34 23
61 43 38 26 16 34 42 56 50 45 51 40 28 18 11 5 3 4 3 3 13 16 16 16 18 23 28 36 37 35 40 44 46 47 48 52 56 56 55 53 48 43 38 32
67 61 60 41 36 45 58 55 53 52 41 32 22 18 11 4 2 2 4 14 20 16 17 16 18 24 28 35 40 43 43 43 47 51 53 53 52 53 55 55 54 50 44 40
39 33 33 44 56 49 46 49 50 46 35 24 18 13 7 3 1 5 7 23 21 23 19 17 19 23 27 32 34 36 42 43 43 47 53 51 46 49 48 49 50 54 51 46
31 44 49 53 45 52 61 58 44 25 26 22 15 9 5 6 7 11 20 25 23 23 20 20 23 26 24 27 26 29 35 40 39 41 46 52 47 39 42 46 44 43 50 51
62 64 67 69 72 65 51 40 34 30 25 18 13 9 7 8 11 16 26 24 23 21 25 25 21 19 20 21 20 18 22 32 35 37 42 46 51 51 52 49 47 46 40 42
69 68 70 64 58 46 41 35 27 23 19 18 14 12 13 13 15 21 30 25 26 24 24 21 26 23 19 21 21 20 21 28 30 32 36 43 48 51 55 61 64 53 48 43
60 60 55 48 43 40 34 30 27 23 20 22 21 21 21 21 18 29 29 26 24 25 21 25 23 21 24 22 21 22 27 24 28 29 29 32 35 39 41 45 52 59 58 50
37 30 31 34 36 34 35 29 27 25 20 20 23 19 17 18 19 31 30 27 23 21 23 22 22 22 22 22 23 27 24 23 21 23 23 22 24 29 34 39 43 47 56 59
43 42 41 39 33 29 27 24 23 21 20 23 21 15 11 15 22 35 28 25 27 28 18 19 28 28 24 26 24 24 24 24 26 27 27 25 23 22 25 30 34 39 45 50
Wind_Direction_500mb
212 193 213 200 198 205 202 226 200 228 231 223 241 252 257 235 163 164 183 226 281 311 317 317 318 323 321 322 325 324 320 320 319 320 318 314 312 306 304 302 283 280 286 292
236 222 212 243 247 240 242 242 260 248 260 232 246 257 189 165 170 180 212 266 302 313 314 320 321 319 320 324 326 321 323 324 323 323 320 316 315 311 304 301 286 276 283 295
255 234 228 241 237 242 251 252 233 245 246 179 134 136 157 169 181 192 223 277 302 309 320 322 317 318 324 325 325 327 327 329 326 324 319 316 313 307 307 305 290 275 279 295
268 175 220 242 218 234 240 241 240 205 165 164 162 164 173 184 181 196 243 298 308 313 320 316 316 320 324 328 331 332 333 330 330 325 320 320 316 311 310 309 296 276 275 291
256 218 272 285 223 225 232 244 229 212 153 156 147 137 161 181 194 261 316 320 309 315 312 311 320 325 327 333 331 337 335 332 330 329 323 320 314 309 303 304 299 275 273 283
222 212 202 246 234 251 67 267 211 154 157 154 155 141 229 187 228 316 304 288 294 296 304 320 324 326 330 335 334 337 336 336 336 337 332 326 322 315 309 301 297 277 278 281
218 261 278 217 224 203 203 246 177 152 155 148 140 176 152 182 267 254 265 282 291 309 316 323 329 328 336 339 338 336 340 340 347 346 341 346 334 332 326 325 310 290 294 291
215 224 246 191 162 172 198 153 149 146 143 136 147 156 163 171 186 224 257 284 299 307 317 328 333 336 344 343 338 340 342 348 353 352 357 5 357 346 352 349 327 321 311 300
251 261 264 191 186 200 164 155 164 159 151 156 160 168 168 173 181 204 250 290 303 310 322 325 331 346 346 344 342 340 346 356 354 355 6 20 16 26 37 33 12 352 343 291
352 1 305 340 253 210 183 175 166 165 160 165 162 164 164 167 172 202 285 297 306 310 322 329 336 354 346 346 342 344 351 357 360 2 4 15 31 28 27 18 359 353 350 277
254 275 283 296 319 309 191 173 171 170 166 170 163 156 166 163 173 204 297 296 302 317 332 333 343 353 348 350 346 350 356 358 3 4 357 360 2 11 14 23 19 351 350 25
270 282 301 308 328 288 269 192 188 180 163 161 165 163 164 155 147 265 283 305 317 326 325 333 342 353 352 356 354 353 360 0 5 6 1 1 357 355 352 340 8 22 350 37
237 254 276 293 300 282 158 153 181 179 160 156 155 159 159 149 140 140 227 311 319 326 334 333 360 353 358 2 359 2 6 3 7 7 3 3 3 6 357 39 25 35 355 14
253 269 266 288 272 206 191 154 149 155 159 162 159 157 156 147 160 207 309 343 336 332 338 353 5 2 3 8 1 5 6 3 7 9 5 3 5 17 7 14 23 28 50 36
258 250 248 249 248 238 265 164 157 155 157 153 162 169 163 163 183 172 238 294 300 315 336 358 10 12 9 11 3 5 4 3 8 15 17 13 11 22 26 19 22 22 37 61
269 269 246 239 242 246 225 180 173 163 163 163 161 163 163 173 169 210 282 283 287 318 2 15 10 11 14 14 8 12 19 16 15 21 23 22 25 28 29 34 31 31 33 49
252 267 261 247 233 219 192 200 188 169 166 167 170 169 166 171 178 219 294 326 320 336 15 23 21 21 19 15 16 19 25 25 32 34 37 38 33 31 34 36 40 38 37 41
237 251 273 324 202 175 185 184 169 167 172 175 171 168 167 178 157 110 69 308 302 103 78 46 30 35 26 21 21 31 37 35 38 41 43 44 46 46 42 40 39 40 42 51
241 243 249 279 251 168 165 163 160 163 170 169 169 165 150 122 59 60 27 82 116 108 88 59 55 49 47 47 55 49 47 47 47 48 47 45 46 44 43 45 45 42 47 56
235 243 255 271 189 166 157 154 156 160 164 169 167 149 135 104 14 21 123 104 116 103 98 77 73 77 70 62 59 52 50 51 49 47 44 45 46 44 44 46 44 42 46 52
212 203 215 152 145 152 157 157 168 161 156 158 155 139 126 111 132 104 108 126 118 118 105 97 97 98 85 74 64 55 50 46 47 48 44 41 45 51 48 47 50 47 45 49
167 159 151 154 157 157 159 158 155 152 157 153 147 134 118 122 113 113 123 129 126 130 108 105 112 115 94 81 68 58 56 52 52 50 43 39 40 44 50 52 51 52 53 49
143 145 147 145 141 138 139 142 143 150 152 143 136 128 114 106 113 124 132 132 126 125 119 109 115 108 90 74 62 75 68 62 59 56 51 51 50 55 56 57 56 57 59 59
130 133 130 128 129 130 127 125 131 129 128 125 119 103 84 87 107 127 135 132 125 126 122 119 115 103 94 91 75 69 86 72 69 66 62 66 63 58 57 56 56 58 61 65
123 124 123 128 127 116 112 119 120 112 111 110 100 88 82 81 102 132 129 121 130 129 119 125 118 104 93 82 75 69 79 81 73 69 60 61 63 62 58 54 53 51 54 61
118 109 115 118 112 111 112 101 88 82 62 113 100 85 70 62 115 135 130 140 138 127 127 120 111 108 93 88 88 91 84 82 76 68 63 61 58 56 56 59 59 57 56 58
125 128 133 134 131 117 109 87 71 81 60 123 109 92 53 90 126 137 136 133 129 116 136 136 108 110 98 96 94 82 70 64 63 64 67 69 72 72 64 62 65 66 65 63
Wind_Speed_850mb
18 19 16 13 12 14 21 29 21 23 33 26 32 35 56 25 30 27 20 13 18 28 37 41 45 52 61 72 80 78 71 66 65 62 66 70 74 72 72 71 70 67 71 66
36 28 25 31 15 17 28 23 24 27 44 16 43 38 23 32 25 21 14 15 22 31 34 40 44 53 65 77 82 69 69 68 69 68 72 70 74 73 76 80 72 65 68 66
25 31 24 20 43 37 29 32 20 30 23 10 7 15 29 28 28 23 16 16 25 27 35 37 44 58 69 78 73 64 66 69 70 70 71 73 71 71 75 71 67 61 63 59
10 7 27 25 15 29 43 47 40 11 13 19 22 26 29 27 27 18 11 18 18 27 31 36 46 58 69 76 64 65 66 70 70 70 70 69 65 71 76 71 64 57 55 55
12 24 10 15 28 33 29 30 28 26 23 26 36 32 19 25 12 5 11 13 22 28 31 35 48 62 67 66 63 62 66 67 70 70 70 67 70 72 72 71 61 54 54 56
14 14 24 26 34 40 5 14 14 21 26 20 29 6 8 25 7 10 7 17 22 23 27 38 53 59 60 57 60 62 65 66 66 68 70 72 64 59 59 55 52 47 54 54
34 14 14 13 12 34 26 17 21 43 41 31 10 9 14 17 8 6 12 15 17 23 31 42 53 55 56 55 60 61 63 63 61 65 63 58 53 44 37 36 33 43 55 62
24 22 45 23 14 25 14 34 39 46 41 33 28 25 22 11 9 10 12 13 17 24 31 40 47 51 58 57 59 59 60 59 60 61 55 58 52 40 38 31 34 45 55 55
3 9 13 15 28 36 42 55 43 46 40 33 38 36 24 15 15 11 9 12 17 25 29 40 41 46 57 56 57 59 59 59 59 53 54 53 56 36 49 45 54 52 77 39
12 17 23 19 8 40 47 53 50 40 37 38 37 34 24 23 18 10 7 13 18 19 32 42 37 45 51 54 54 54 59 59 59 53 47 37 36 45 49 47 59 70 85 13
7 35 40 36 20 13 38 50 45 37 35 39 38 32 27 23 11 2 5 9 10 21 29 41 38 43 48 49 51 53 57 58 57 54 48 36 33 35 31 28 34 49 72 9
8 25 17 25 31 14 30 56 45 41 40 38 32 34 30 18 7 1 3 4 11 16 24 34 37 41 45 46 46 48 55 57 53 51 50 44 41 31 26 26 18 16 38 30
27 30 26 36 24 23 14 24 35 41 45 40 37 33 22 16 7 5 1 6 12 19 25 38 32 38 41 45 43 41 47 48 46 46 49 47 45 47 43 25 13 7 10 36
54 53 30 29 17 7 8 23 34 43 43 39 34 23 16 10 9 3 2 8 15 19 25 26 30 34 39 42 40 39 38 41 43 40 41 43 44 43 43 46 34 26 14 23
68 54 47 32 26 36 26 47 48 48 44 37 25 18 11 8 7 5 3 8 10 13 17 22 26 36 41 42 38 37 38 40 38 38 39 38 37 39 42 41 40 33 26 13
43 33 45 57 61 54 60 50 47 49 40 35 30 22 12 9 8 4 7 5 8 9 13 16 24 32 40 39 38 39 40 35 34 38 42 41 40 41 44 43 43 38 30 26
42 41 43 44 39 31 49 46 52 49 43 43 34 25 14 8 5 1 2 5 8 9 9 13 21 27 34 36 39 35 39 40 38 41 43 44 44 45 46 46 43 40 35 24
46 39 18 14 22 32 38 51 53 45 45 49 38 24 13 7 3 3 1 3 7 3 8 14 18 22 31 31 30 27 36 40 42 44 47 49 49 48 47 46 46 42 34 23
61 43 38 26 16 34 42 56 50 45 51 40 28 18 11 5 3 4 3 3 13 16 16 16 18 23 28 36 37 35 40 44 46 47 48 52 56 56 55 53 48 43 38 32
67 61 60 41 36 45 58 55 53 52 41 32 22 18 11 4 2 2 4 14 20 16 17 16 18 24 28 35 40 43 43 43 47 51 53 53 52 53 55 55 54 50 44 40
39 33 33 44 56 49 46 49 50 46 35 24 18 13 7 3 1 5 7 23 21 23 19 17 19 23 27 32 34 36 42 43 43 47 53 51 46 49 48 49 50 54 51 46
31 44 49 53 45 52 61 58 44 25 26 22 15 9 5 6 7 11 20 25 23 23 20 20 23 26 24 27 26 29 35 40 39 41 46 52 47 39 42 46 44 43 50 51
62 64 67 69 72 65 51 40 34 30 25 18 13 9 7 8 11 16 26 24 23 21 25 25 21 19 20 21 20 18 22 32 35 37 42 46 51 51 52 49 47 46 40 42
69 68 70 64 58 46 41 35 27 23 19 18 14 12 13 13 15 21 30 25 26 24 24 21 26 23 19 21 21 20 21 28 30 32 36 43 48 51 55 61 64 53 48 43
60 60 55 48 43 40 34 30 27 23 20 22 21 21 21 21 18 29 29 26 24 25 21 25 23 21 24 22 21 22 27 24 28 29 29 32 35 39 41 45 52 59 58 50
37 30 31 34 36 34 35 29 27 25 20 20 23 19 17 18 19 31 30 27 23 21 23 22 22 22 22 22 23 27 24 23 21 23 23 22 24 29 34 39 43 47 56 59
43 42 41 39 33 29 27 24 23 21 20 23 21 15 11 15 22 35 28 25 27 28 18 19 28 28 24 26 24 24 24 24 26 27 27 25 23 22 25 30 34 39 45 50
Wind_Direction_850mb
212 193 213 200 198 205 202 226 200 228 231 223 241 252 257 235 163 164 183 226 281 311 317 317 318 323 321 322 325 324 320 320 319 320 318 314 312 306 304 302 283 280 286 292
236 222 212 243 247 240 242 242 260 248 260 232 246 257 189 165 170 180 212 266 302 313 314 320 321 319 320 324 326 321 323 324 323 323 320 316 315 311 304 301 286 276 283 295
255 234 228 241 237 242 251 252 233 245 246 179 134 136 157 169 181 192 223 277 302 309 320 322 317 318 324 325 325 327 327 329 326 324 319 316 313 307 307 305 290 275 279 295
268 175 220 242 218 234 240 241 240 205 165 164 162 164 173 184 181 196 243 298 308 313 320 316 316 320 324 328 331 332 333 330 330 325 320 320 316 311 310 309 296 276 275 291
256 218 272 285 223 225 232 244 229 212 153 156 147 137 161 181 194 261 316 320 309 315 312 311 320 325 327 333 331 337 335 332 330 329 323 320 314 309 303 304 299 275 273 283
222 212 202 246 234 251 67 267 211 154 157 154 155 141 229 187 228 316 304 288 294 296 304 320 324 326 330 335 334 337 336 336 336 337 332 326 322 315 309 301 297 277 278 281
218 261 278 217 224 203 203 246 177 152 155 148 140 176 152 182 267 254 265 282 291 309 316 323 329 328 336 339 338 336 340 340 347 346 341 346 334 332 326 325 310 290 294 291
215 224 246 191 162 172 198 153 149 146 143 136 147 156 163 171 186 224 257 284 299 307 317 328 333 336 344 343 338 340 342 348 353 352 357 5 357 346 352 349 327 321 311 300
251 261 264 191 186 200 164 155 164 159 151 156 160 168 168 173 181 204 250 290 303 310 322 325 331 346 346 344 342 340 346 356 354 355 6 20 16 26 37 33 12 352 343 291
352 1 305 340 253 210 183 175 166 165 160 165 162 164 164 167 172 202 285 297 306 310 322 329 336 354 346 346 342 344 351 357 360 2 4 15 31 28 27 18 359 353 350 277
254 275 283 296 319 309 191 173 171 170 166 170 163 156 166 163 173 204 297 296 302 317 332 333 343 353 348 350 346 350 356 358 3 4 357 360 2 11 14 23 19 351 350 25
270 282 301 308 328 288 269 192 188 180 163 161 165 163 164 155 147 265 283 305 317 326 325 333 342 353 352 356 354 353 360 0 5 6 1 1 357 355 352 340 8 22 350 37
237 254 276 293 300 282 158 153 181 179 160 156 155 159 159 149 140 140 227 311 319 326 334 333 360 353 358 2 359 2 6 3 7 7 3 3 3 6 357 39 25 35 355 14
253 269 266 288 272 206 191 154 149 155 159 162 159 157 156 147 160 207 309 343 336 332 338 353 5 2 3 8 1 5 6 3 7 9 5 3 5 17 7 14 23 28 50 36
258 250 248 249 248 238 265 164 157 155 157 153 162 169 163 163 183 172 238 294 300 315 336 358 10 12 9 11 3 5 4 3 8 15 17 13 11 22 26 19 22 22 37 61
269 269 246 239 242 246 225 180 173 163 163 163 161 163 163 173 169 210 282 283 287 318 2 15 10 11 14 14 8 12 19 16 15 21 23 22 25 28 29 34 31 31 33 49
252 267 261 247 233 219 192 200 188 169 166 167 170 169 166 171 178 219 294 326 320 336 15 23 21 21 19 15 16 19 25 25 32 34 37 38 33 31 34 36 40 38 37 41
237 251 273 324 202 175 185 184 169 167 172 175 171 168 167 178 157 110 69 308 302 103 78 46 30 35 26 21 21 31 37 35 38 41 43 44 46 46 42 40 39 40 42 51
241 243 249 279 251 168 165 163 160 163 170 169 169 165 150 122 59 60 27 82 116 108 88 59 55 49 47 47 55 49 47 47 47 48 47 45 46 44 43 45 45 42 47 56
235 243 255 271 189 166 157 154 156 160 164 169 167 149 135 104 14 21 123 104 116 103 98 77 73 77 70 62 59 52 50 51 49 47 44 45 46 44 44 46 44 42 46 52
212 203 215 152 145 152 157 157 168 161 156 158 155 139 126 111 132 104 108 126 118 118 105 97 97 98 85 74 64 55 50 46 47 48 44 41 45 51 48 47 50 47 45 49
167 159 151 154 157 157 159 158 155 152 157 153 147 134 118 122 113 113 123 129 126 130 108 105 112 115 94 81 68 58 56 52 52 50 43 39 40 44 50 52 51 52 53 49
143 145 147 145 141 138 139 142 143 150 152 143 136 128 114 106 113 124 132 132 126 125 119 109 115 108 90 74 62 75 68 62 59 56 51 51 50 55 56 57 56 57 59 59
130 133 130 128 129 130 127 125 131 129 128 125 119 103 84 87 107 127 135 132 125 126 122 119 115 103 94 91 75 69 86 72 69 66 62 66 63 58 57 56 56 58 61 65
123 124 123 128 127 116 112 119 120 112 111 110 100 88 82 81 102 132 129 121 130 129 119 125 118 104 93 82 75 69 79 81 73 69 60 61 63 62 58 54 53 51 54 61
118 109 115 118 112 111 112 101 88 82 62 113 100 85 70 62 115 135 130 140 138 127 127 120 111 108 93 88 88 91 84 82 76 68 63 61 58 56 56 59 59 57 56 58
125 128 133 134 131 117 109 87 71 81 60 123 109 92 53 90 126 137 136 133 129 116 136 136 108 110 98 96 94 82 70 64 63 64 67 69 72 72 64 62 65 66 65 63